This demonstration page uses our WeatherBlox Daily Observations layout. Learn more.

Left ArrowRight Arrow

38.20091, -84.87328

Hourly Observations for September 22, 2016

Temp ( °F °C ) Dew Point ( °F °C ) Humidity (%) Winds ( mph kmh ) Pressure ( in mb ) Visibility ( mi km ) Precip ( " mm )
12:53 am 00:53 Clear 63 17.2 58 14.4 84 84 Calm 30.09 1019 10 16 0.00 0.00
1:53 am 01:53 Clear 64 17.8 59 15 84 84 Calm 30.07 1018 10 16 0.00 0.00
2:53 am 02:53 Clear 63 17.2 58 14.4 84 84 Calm 30.08 1019 10 16 0.00 0.00
3:53 am 03:53 Clear 61 16.1 57 13.9 87 87 Calm 30.08 1019 10 16 0.00 0.00
4:53 am 04:53 Clear 61 16.1 57 13.9 87 87 Calm 30.06 1018 10 16 0.00 0.00
5:53 am 05:53 Clear 61 16.1 56 13.3 84 84 Calm 30.07 1018 10 16 0.00 0.00
6:53 am 06:53 Clear 59 15 56 13.3 90 90 Calm 30.08 1019 10 16 0.00 0.00
7:53 am 07:53 Sunny 59 15 55 12.8 87 87 Calm 30.09 1019 10 16 0.00 0.00
8:53 am 08:53 Sunny 67 19.4 60 15.6 79 79 ENE 3 6 30.10 1019 10 16 0.00 0.00
9:53 am 09:53 Sunny 73 22.8 60 15.6 64 64 Calm 30.10 1019 10 16 0.00 0.00
10:53 am 10:53 Sunny 78 25.6 61 16.1 56 56 SSE 3 6 30.10 1019 10 16 0.00 0.00
11:53 am 11:53 Sunny 85 29.4 60 15.6 43 43 W 3 6 30.10 1019 10 16 0.00 0.00
12:53 pm 12:53 Sunny 86 30 60 15.6 42 42 Calm 30.09 1019 10 16 0.00 0.00
1:53 pm 13:53 Sunny 88 31.1 59 15 38 38 ESE 5 7 30.07 1018 10 16 0.00 0.00
2:53 pm 14:53 Sunny 89 31.7 59 15 36 36 Calm 30.04 1017 10 16 0.00 0.00
3:53 pm 15:53 Sunny 90 32.2 59 15 35 35 VRB 3 6 30.02 1017 10 16 0.00 0.00
4:53 pm 16:53 Sunny 91 32.8 58 14.4 33 33 E 5 7 30.01 1016 10 16 0.00 0.00
5:53 pm 17:53 Sunny 89 31.7 58 14.4 35 35 VRB 6 9 30.00 1016 10 16 0.00 0.00
6:53 pm 18:53 Sunny 86 30 61 16.1 43 43 W 3 6 30.01 1016 10 16 0.00 0.00
7:53 pm 19:53 Clear 78 25.6 63 17.2 60 60 Calm 30.01 1016 10 16 0.00 0.00
8:53 pm 20:53 Clear 75 23.9 63 17.2 66 66 Calm 30.01 1016 10 16 0.00 0.00
9:53 pm 21:53 Clear 72 22.2 63 17.2 73 73 Calm 30.02 1017 10 16 0.00 0.00
10:53 pm 22:53 Clear 69 20.6 62 16.7 78 78 Calm 30.03 1017 10 16 0.00 0.00
11:53 pm 23:53 Clear 68 20 62 16.7 81 81 Calm 30.04 1017 10 16 0.00 0.00

Powered by AerisWeather